Aeroporto :
LOGIN :

Iscrizione | Disclaimer

   EN    FR    IT 

 










Sommario :    VFR   VFR Marginale   IFR   IFR Intensivo   IFR Molto Intensivo
Visibilità : 
Base nubi : 
>= 8 km
>= 3000ft
5 / 8 km
1000 / 3000 ft
1500m / 5 km
500 / 1000 ft
800 / 1500m
200 / 500 ft
< 800m
< 200 ft
Simboli :   Temporali  Nebbia  Neve Forte  Precipitazioni Forti  Vento > 20 kt
SIGMETs :   Varie  Temporali  Ghiacco  Turbolenza  Onda orograficha  Ceneri Vulcaniche






- Altitudine del aeroporto : 354 ft
- Codice IATA : OER


ESNO - Örnsköldsvik

ULTIMO METAR :
  • 140550Z AUTO VRB03KT 9999 FEW012/// 14/10 Q1012

METARs OBSOLETI :
  • 140520Z AUTO VRB02KT 9999 BKN011/// 14/10 Q1012
  • 140450Z AUTO VRB03KT 9999 NCD 12/10 Q1012
  • 140420Z AUTO VRB02KT 9999 NCD 12/09 Q1012
  • 140350Z AUTO 33004KT 9999 NCD 10/09 Q1012
  • 140320Z AUTO 36004KT 9999 FEW064/// 09/08 Q1012

TAF TAF ESNO
Valido dal 14 a 06 ore il 14 a 10 ore UTC


140530Z 1406/1410 VRB02KT CAVOK



MetMap, La meteo Aeronautica in un colpo d'occhio ! - Copyright ORBIFLY Dicembre 2007 - Disclaimer

ORBIFLY MET'MAP TEAM :

Programmazione e sviluppo : Alexandra Zaïnal
Concezione : Baudouin d'Aumeries
Aiuto per la programmazione : Marc-Olivier Méhu
Supporto tecnico e logistico : Manuel Goepfert
Aiuto per la traduzione : Arnaldo La Scala

Contatto : metmap@orbifly.com




FONTI E CREDITI :

   NOAA